Temp
-15 -15 -15 -15 -15 -15 -15 -14 -15 -14 -14 -14 -14 -14 -14 -14 -14 -14 -14 -15 -15 -15 -15 -15 -15 -15 -15 -15 -15 -15 -15 -15 -15 -15 -15 -16 -16 -16
-15 -15 -15 -15 -15 -15 -15 -15 -15 -15 -15 -15 -14 -14 -14 -14 -14 -14 -15 -15 -15 -15 -15 -15 -15 -15 -15 -15 -15 -15 -15 -15 -16 -16 -16 -16 -17 -17
-15 -16 -16 -16 -16 -16 -15 -15 -15 -15 -15 -15 -15 -15 -14 -15 -15 -15 -15 -15 -16 -16 -16 -16 -16 -16 -16 -16 -16 -16 -16 -17 -17 -17 -17 -17 -17 -18
-15 -16 -16 -16 -16 -16 -15 -15 -15 -16 -16 -15 -15 -15 -15 -16 -15 -16 -16 -16 -17 -17 -16 -16 -16 -16 -17 -17 -17 -17 -17 -17 -17 -17 -18 -18 -18 -18
-16 -16 -16 -16 -16 -16 -16 -16 -16 -16 -16 -16 -16 -16 -16 -16 -16 -17 -17 -17 -17 -17 -17 -17 -17 -17 -18 -18 -18 -18 -18 -18 -18 -18 -18 -18 -19 -19
-16 -16 -16 -17 -17 -17 -17 -16 -16 -16 -16 -17 -17 -17 -17 -17 -17 -18 -17 -18 -18 -18 -18 -18 -18 -18 -19 -19 -19 -19 -19 -19 -19 -19 -20 -20 -20 -20
-17 -17 -17 -17 -17 -17 -17 -17 -17 -17 -17 -17 -17 -17 -18 -18 -18 -18 -18 -19 -19 -19 -19 -19 -19 -19 -19 -19 -20 -20 -20 -20 -20 -20 -21 -21 -21 -21
-17 -17 -17 -17 -18 -18 -18 -18 -17 -18 -18 -18 -17 -18 -18 -18 -19 -19 -19 -19 -19 -20 -20 -20 -20 -20 -20 -20 -20 -21 -21 -21 -21 -21 -21 -21 -22 -23
-17 -17 -18 -18 -18 -18 -18 -18 -18 -18 -18 -18 -19 -19 -19 -20 -20 -20 -20 -20 -20 -20 -20 -20 -20 -21 -21 -21 -21 -21 -21 -21 -22 -22 -23 -23 -23 -24
-18 -18 -18 -18 -18 -18 -18 -19 -19 -19 -19 -20 -20 -20 -20 -20 -20 -21 -21 -21 -21 -21 -21 -21 -21 -22 -21 -21 -22 -22 -22 -23 -23 -23 -24 -24 -25 -25
-19 -18 -18 -18 -19 -19 -19 -19 -19 -20 -20 -20 -21 -21 -21 -21 -21 -21 -21 -22 -22 -22 -22 -22 -22 -22 -23 -23 -23 -23 -24 -24 -25 -25 -26 -26 -26 -26
-19 -19 -19 -19 -19 -19 -19 -20 -20 -20 -21 -21 -21 -21 -21 -21 -22 -22 -22 -22 -22 -22 -22 -22 -22 -23 -23 -24 -25 -25 -25 -25 -26 -26 -26 -27 -27 -27
-19 -19 -19 -19 -19 -20 -20 -20 -20 -21 -21 -21 -21 -22 -22 -22 -22 -23 -22 -22 -23 -23 -22 -23 -23 -24 -24 -25 -26 -26 -26 -26 -27 -27 -27 -27 -28 -28
-20 -20 -20 -20 -20 -21 -21 -21 -22 -22 -22 -22 -22 -23 -23 -23 -23 -23 -23 -23 -23 -23 -24 -24 -25 -25 -26 -26 -27 -27 -28 -28 -28 -28 -28 -28 -29 -29
-20 -21 -21 -21 -21 -22 -22 -22 -22 -22 -23 -23 -23 -24 -24 -24 -23 -23 -24 -24 -25 -25 -25 -25 -26 -26 -27 -27 -27 -28 -28 -29 -29 -29 -29 -29 -30 -30
-22 -22 -22 -22 -23 -23 -23 -23 -23 -23 -24 -24 -24 -24 -24 -24 -25 -25 -25 -25 -26 -26 -26 -27 -27 -27 -27 -27 -27 -28 -28 -28 -29 -29 -30 -30 -30 -30
-23 -23 -23 -23 -23 -23 -24 -24 -24 -24 -25 -25 -25 -25 -26 -26 -26 -26 -26 -26 -27 -28 -28 -27 -27 -28 -28 -28 -28 -29 -29 -29 -29 -30 -30 -30 -31 -31
-24 -24 -24 -24 -24 -25 -25 -25 -25 -25 -26 -26 -26 -26 -26 -26 -26 -26 -27 -28 -28 -28 -28 -29 -29 -28 -28 -28 -29 -29 -30 -30 -30 -30 -30 -30 -31 -31
-25 -25 -25 -25 -25 -25 -25 -26 -26 -26 -26 -27 -27 -27 -27 -27 -27 -28 -28 -28 -29 -29 -29 -29 -29 -29 -29 -29 -30 -30 -30 -30 -30 -31 -31 -31 -31 -31
-26 -26 -26 -26 -27 -27 -27 -27 -27 -27 -27 -27 -27 -27 -28 -28 -28 -29 -29 -29 -29 -29 -30 -30 -30 -29 -29 -30 -30 -31 -31 -31 -31 -31 -31 -31 -32 -32
-27 -27 -27 -27 -27 -27 -27 -27 -27 -27 -27 -28 -28 -29 -29 -29 -29 -29 -29 -30 -30 -30 -30 -31 -31 -30 -30 -30 -30 -31 -31 -31 -31 -31 -32 -32 -32 -32
-28 -28 -28 -28 -28 -28 -28 -28 -27 -28 -29 -29 -29 -29 -29 -29 -29 -30 -30 -30 -31 -30 -31 -31 -31 -31 -31 -31 -31 -31 -31 -31 -32 -32 -32 -32 -32 -32
-28 -28 -28 -28 -28 -28 -28 -28 -29 -29 -30 -30 -30 -30 -30 -30 -30 -30 -30 -31 -31 -31 -31 -31 -31 -31 -31 -31 -31 -31 -31 -32 -32 -32 -33 -33 -33 -34
Height
5804 5806 5809 5811 5813 5815 5816 5817 5817 5818 5818 5818 5817 5816 5816 5815 5814 5812 5811 5809 5808 5806 5804 5802 5800 5798 5795 5792 5789 5785 5782 5779 5777 5774 5771 5768 5765 5762
5793 5796 5798 5800 5802 5804 5806 5807 5807 5808 5808 5807 5807 5806 5805 5803 5802 5801 5800 5798 5796 5793 5791 5789 5787 5784 5781 5778 5775 5772 5768 5765 5762 5759 5756 5753 5749 5746
5783 5785 5787 5789 5791 5792 5793 5795 5795 5796 5796 5795 5795 5795 5793 5792 5791 5790 5788 5786 5784 5781 5779 5777 5774 5771 5767 5764 5761 5757 5754 5751 5748 5745 5741 5738 5734 5730
5772 5774 5777 5778 5780 5782 5782 5783 5783 5784 5784 5784 5784 5783 5781 5780 5779 5777 5775 5773 5771 5769 5766 5763 5760 5756 5753 5750 5746 5743 5740 5737 5733 5730 5726 5722 5718 5713
5762 5764 5766 5767 5767 5769 5769 5770 5771 5771 5772 5772 5771 5771 5769 5767 5766 5764 5763 5760 5758 5755 5753 5750 5746 5743 5740 5736 5732 5729 5725 5722 5718 5715 5711 5706 5701 5696
5749 5751 5754 5756 5757 5757 5757 5756 5757 5757 5757 5757 5757 5757 5755 5754 5752 5750 5748 5746 5744 5742 5739 5736 5733 5729 5725 5722 5718 5714 5710 5706 5702 5698 5693 5689 5684 5678
5738 5739 5742 5744 5743 5744 5745 5744 5744 5744 5744 5744 5743 5742 5741 5740 5739 5736 5735 5732 5730 5727 5724 5721 5717 5714 5710 5707 5703 5698 5694 5690 5685 5681 5676 5670 5666 5660
5726 5727 5728 5729 5729 5729 5732 5731 5731 5731 5731 5731 5730 5730 5727 5726 5724 5723 5720 5718 5715 5712 5709 5706 5702 5698 5695 5691 5687 5682 5677 5672 5667 5661 5656 5650 5644 5639
5712 5712 5714 5714 5715 5713 5716 5717 5717 5717 5716 5715 5714 5714 5713 5710 5709 5707 5705 5702 5700 5697 5693 5690 5687 5682 5679 5676 5670 5664 5658 5653 5646 5640 5635 5629 5623 5617
5697 5699 5700 5700 5700 5700 5701 5701 5701 5701 5700 5699 5699 5699 5698 5696 5694 5692 5690 5687 5685 5683 5678 5674 5671 5666 5661 5657 5650 5644 5637 5631 5625 5619 5614 5608 5602 5597
5682 5684 5686 5685 5685 5685 5686 5686 5687 5686 5686 5685 5684 5683 5682 5680 5679 5677 5675 5672 5669 5667 5663 5659 5654 5649 5641 5636 5628 5622 5616 5610 5605 5601 5596 5591 5586 5582
5668 5669 5670 5671 5670 5671 5671 5670 5671 5671 5671 5671 5670 5669 5667 5665 5664 5662 5659 5656 5653 5649 5645 5642 5636 5631 5625 5615 5607 5602 5597 5593 5589 5584 5580 5575 5571 5567
5651 5653 5654 5654 5655 5655 5655 5655 5656 5656 5656 5656 5655 5654 5653 5651 5649 5646 5643 5640 5635 5631 5628 5622 5617 5612 5607 5602 5591 5585 5581 5577 5573 5568 5565 5560 5555 5552
5635 5636 5638 5639 5640 5640 5639 5640 5640 5640 5640 5641 5640 5639 5637 5636 5633 5631 5627 5622 5617 5612 5609 5605 5601 5595 5590 5585 5580 5571 5566 5561 5559 5554 5550 5545 5540 5536
5620 5621 5623 5623 5624 5624 5625 5626 5626 5626 5626 5626 5624 5623 5621 5618 5616 5614 5610 5605 5599 5595 5591 5587 5584 5579 5575 5570 5566 5558 5555 5548 5543 5539 5535 5530 5525 5520
5606 5607 5608 5609 5608 5609 5611 5612 5612 5612 5611 5610 5609 5607 5604 5601 5598 5595 5591 5588 5581 5576 5574 5570 5567 5564 5559 5554 5551 5545 5539 5536 5530 5525 5522 5517 5511 5505
5592 5593 5594 5594 5595 5596 5598 5598 5597 5597 5596 5595 5592 5590 5587 5583 5580 5578 5573 5569 5565 5559 5555 5554 5553 5549 5545 5540 5535 5529 5525 5520 5516 5513 5508 5504 5497 5491
5578 5579 5580 5581 5581 5582 5583 5584 5583 5581 5580 5578 5575 5572 5569 5567 5563 5559 5556 5552 5549 5545 5540 5535 5533 5532 5529 5524 5520 5514 5509 5506 5502 5498 5494 5491 5486 5476
5565 5564 5564 5565 5566 5568 5568 5568 5567 5565 5564 5561 5558 5554 5551 5549 5546 5542 5540 5537 5533 5529 5524 5520 5517 5516 5514 5510 5505 5496 5495 5490 5487 5483 5478 5473 5470 5463
5551 5549 5549 5550 5552 5553 5553 5551 5549 5547 5545 5543 5540 5537 5534 5533 5531 5528 5524 5521 5518 5514 5509 5503 5500 5498 5497 5495 5493 5485 5475 5476 5471 5468 5463 5457 5452 5447
5535 5534 5532 5534 5535 5536 5535 5534 5532 5530 5528 5526 5523 5521 5519 5517 5515 5512 5508 5505 5501 5498 5494 5488 5483 5482 5481 5479 5477 5473 5465 5455 5453 5450 5445 5440 5435 5430
5519 5519 5518 5519 5519 5519 5518 5517 5515 5513 5511 5509 5507 5505 5503 5502 5500 5496 5492 5488 5484 5481 5478 5473 5468 5466 5464 5462 5460 5457 5452 5444 5434 5428 5422 5416 5413 5412
5503 5503 5503 5503 5502 5500 5499 5499 5498 5496 5494 5493 5492 5489 5487 5486 5482 5479 5475 5472 5468 5464 5460 5457 5453 5450 5447 5444 5441 5438 5434 5427 5420 5414 5405 5390 5386 5381
Wind_Speed
42 39 41 39 39 39 39 38 36 38 39 40 41 41 41 43 44 46 46 47 47 48 49 50 50 52 54 55 56 57 58 59 59 59 60 61 62 62
46 41 41 41 40 40 40 40 40 41 41 41 41 43 44 46 48 48 49 51 52 52 53 54 55 56 57 58 58 58 58 59 59 59 60 60 61 62
46 47 44 39 39 42 43 45 45 43 43 44 45 47 47 49 51 51 53 54 55 54 55 55 55 56 56 56 56 56 56 56 57 58 59 60 61 63
48 43 42 44 45 46 48 50 46 44 44 46 48 48 48 50 53 54 54 51 51 53 54 55 55 56 57 57 58 57 57 59 60 61 63 65 67 66
50 48 50 44 42 43 42 45 49 49 47 46 48 49 51 50 51 52 52 54 55 55 55 55 58 58 59 59 60 60 61 61 63 65 65 66 66 67
50 50 44 48 46 49 52 54 53 50 49 49 50 54 53 52 52 52 53 54 56 55 56 58 59 60 60 61 61 61 62 64 64 65 66 66 69 71
53 48 50 53 53 53 49 51 53 53 53 52 52 52 51 52 53 53 55 56 56 57 58 59 59 58 60 61 62 63 64 65 67 68 70 74 75 75
54 51 52 55 53 54 52 49 51 50 50 52 52 53 53 54 56 56 56 56 56 57 58 58 59 61 61 62 64 66 68 71 75 78 80 80 78 78
52 53 51 54 53 57 54 51 52 54 55 54 54 55 57 55 55 54 56 56 57 58 58 60 61 62 64 66 70 72 76 78 79 80 80 80 79 77
63 61 57 54 61 62 58 58 56 58 57 55 55 56 57 56 55 54 55 56 57 56 57 60 63 67 70 71 75 77 78 77 77 75 71 67 64 62
60 58 61 62 62 59 58 60 61 60 59 59 58 58 55 54 52 53 54 55 55 58 62 65 68 71 73 76 76 76 72 68 66 63 61 59 58 57
66 65 63 67 63 63 59 59 60 61 59 60 58 57 53 52 51 53 55 57 62 65 67 70 73 75 75 73 69 66 63 62 60 59 58 56 54 52
60 63 63 66 65 63 61 60 56 57 57 58 56 54 51 52 53 56 60 63 66 70 72 74 76 74 69 64 61 61 59 58 55 54 54 54 55 55
65 62 66 62 61 57 55 53 54 54 54 54 51 50 50 53 55 59 64 68 71 73 74 71 68 64 61 58 57 56 55 54 54 56 56 57 58 58
55 55 54 53 54 54 52 53 54 53 50 48 48 50 53 56 61 64 67 68 69 69 67 64 60 58 57 56 53 54 54 54 56 56 56 55 55 57
53 53 53 51 51 54 54 52 50 49 49 49 51 53 57 60 61 64 64 66 65 63 60 57 56 55 54 53 53 54 54 53 54 54 54 53 53 53
49 48 48 50 52 51 49 48 48 49 50 53 55 57 59 62 62 63 63 61 59 57 58 58 55 53 53 53 53 53 52 52 52 51 50 50 51 53
46 47 48 49 49 48 49 50 51 52 54 56 57 60 62 62 62 60 58 55 55 56 58 57 56 54 53 54 53 51 51 50 49 49 50 50 52 56
44 45 46 48 50 51 51 51 52 54 56 58 60 61 61 61 58 55 55 54 56 57 57 57 56 55 53 51 49 50 48 49 49 50 53 55 56 59
46 47 48 48 49 50 51 53 55 57 58 60 60 60 58 56 54 54 56 56 56 56 56 56 56 55 52 50 46 47 52 50 52 54 56 58 60 62
49 48 49 51 53 54 55 57 58 59 59 58 56 56 55 54 54 56 57 56 56 55 55 56 57 54 52 49 47 48 51 56 59 60 61 62 63 64
51 51 52 54 55 57 59 61 59 57 55 53 53 53 54 55 56 56 56 55 55 56 56 55 54 54 52 52 52 53 55 59 64 66 68 70 70 69
54 55 57 58 58 59 59 58 55 53 52 53 54 54 56 56 56 55 55 55 56 57 55 54 54 54 55 56 57 59 61 64 66 68 71 75 76 75
Wind_Direction
253 258 259 255 256 260 263 266 272 276 279 281 283 285 286 287 288 289 290 289 289 289 289 289 289 289 290 291 291 291 291 290 289 290 289 289 288 288
258 256 258 256 258 260 262 266 274 276 280 281 282 284 286 288 288 288 288 288 289 290 290 290 290 291 292 293 292 291 290 290 290 290 289 288 287 287
253 258 253 254 259 262 265 271 276 279 281 283 283 284 286 287 287 287 288 288 289 290 291 291 293 295 296 295 294 292 291 291 291 291 291 292 292 290
251 245 249 264 262 264 268 270 272 276 282 283 280 282 287 289 290 290 289 290 292 293 294 296 297 297 296 295 294 294 293 293 293 293 294 294 294 293
250 252 259 260 262 268 268 270 274 277 280 281 282 284 288 288 289 289 289 290 291 293 295 297 297 295 295 295 294 294 294 293 292 293 292 290 289 289
251 256 260 258 257 265 271 272 273 276 278 282 284 288 287 287 289 291 291 291 293 295 296 296 295 296 295 295 294 293 292 292 291 290 289 289 289 288
248 254 266 254 263 268 265 268 272 274 278 281 283 284 286 287 291 290 291 292 293 293 294 295 296 294 295 294 293 292 291 290 289 288 288 288 289 288
246 258 264 261 266 261 262 267 269 269 272 277 280 282 282 285 287 290 293 290 290 292 293 294 294 294 294 294 293 291 290 290 289 289 289 289 289 290
252 256 255 255 254 260 264 268 270 270 278 282 283 280 280 283 286 287 289 290 290 292 292 294 293 291 291 291 290 289 290 291 290 290 290 291 290 290
257 256 261 254 251 253 262 272 272 269 273 275 277 276 278 282 284 286 287 287 289 289 289 288 288 289 291 292 293 293 292 292 291 291 292 293 293 293
256 253 257 260 250 254 262 267 269 271 273 274 273 276 277 281 283 286 286 285 286 288 291 291 291 292 293 294 294 293 292 293 293 294 294 294 293 293
253 257 261 258 260 259 261 259 263 265 268 271 273 275 278 281 284 285 286 286 289 291 292 293 294 294 294 294 293 292 293 294 295 295 295 295 295 295
259 255 258 257 257 259 259 261 266 265 267 270 272 274 277 281 284 285 288 289 290 291 293 294 294 293 292 292 292 293 294 295 296 296 296 296 295 294
259 262 259 257 257 260 260 261 262 263 264 267 270 273 278 280 284 288 289 290 290 291 291 291 289 289 290 290 291 293 294 295 295 295 295 295 296 296
254 254 257 258 258 259 258 259 260 261 264 270 276 279 280 284 287 287 288 288 290 289 288 287 288 288 289 290 290 291 292 294 294 295 297 298 298 299
257 256 256 255 255 256 257 257 259 266 272 276 278 279 282 284 286 288 289 289 287 286 286 287 288 289 289 289 290 291 292 293 294 296 297 298 299 299
248 248 249 249 251 255 261 266 272 275 275 277 279 281 282 285 286 287 287 286 285 286 287 287 287 287 288 290 291 292 293 294 295 296 298 300 300 300
245 248 252 257 261 266 270 273 274 274 276 278 279 280 283 284 285 286 285 285 285 286 287 288 289 289 289 291 291 292 293 293 295 297 299 301 302 301
255 258 261 263 266 270 271 272 273 275 277 279 280 281 283 283 283 283 282 283 285 286 287 288 288 289 290 291 293 292 291 293 296 300 301 302 303 302
257 258 260 263 266 269 272 273 275 278 280 280 280 280 280 280 280 281 282 284 285 286 287 287 287 289 290 290 289 289 292 295 297 299 299 301 301 302
258 260 263 266 270 272 275 278 280 280 278 278 277 277 277 279 280 281 283 284 285 286 285 286 288 288 288 287 288 288 291 295 298 299 300 301 301 302
259 262 265 268 272 275 279 280 278 275 274 274 274 275 276 278 280 282 284 284 284 284 285 285 285 286 286 287 288 289 292 295 296 298 300 301 301 301
263 268 272 275 279 278 276 274 271 270 270 272 273 275 277 280 281 282 282 283 284 285 285 284 284 285 287 288 289 291 294 295 295 297 299 300 301 301